• în România
  • Lista ţărilor
  • Pe 7 zile
  • Temperatura apei
  • Hartă satelitară
  • Meteo pe hartă
  • Widget-uri
  • user-avatar
    Intrare

    Meteo pe oră la Satif

    Astăzi, 20 August, Duminică

    Timp Temperatura Precipitaţii Vânt Presiune Umiditate
    00:00 +26°C° 0 mm 2 m/s 676 mmHg 58%
    01:00 +25°C° 0 mm 2 m/s 676 mmHg 59%
    02:00 +25°C° 0 mm 2 m/s 675 mmHg 60%
    03:00 +24°C° 0 mm 2 m/s 675 mmHg 61%
    04:00 +24°C° 0 mm 2 m/s 675 mmHg 61%
    05:00 +24°C° 0 mm 2 m/s 675 mmHg 60%
    06:00 +24°C° 0 mm 2 m/s 675 mmHg 60%
    07:00 +25°C° 0 mm 2 m/s 676 mmHg 53%
    08:00 +27°C° 0 mm 2 m/s 676 mmHg 46%
    09:00 +28°C° 0 mm 2 m/s 677 mmHg 39%
    10:00 +29°C° 0 mm 3 m/s 677 mmHg 37%
    11:00 +30°C° 0 mm 3 m/s 677 mmHg 35%
    12:00 +31°C° 0 mm 3 m/s 677 mmHg 34%
    13:00 +31°C° 0 mm 3 m/s 677 mmHg 34%
    14:00 +32°C° 0 mm 4 m/s 677 mmHg 35%
    15:00 +32°C° 0 mm 4 m/s 676 mmHg 35%
    16:00 +30°C° 0 mm 4 m/s 676 mmHg 40%
    17:00 +29°C° 0 mm 4 m/s 676 mmHg 45%
    18:00 +27°C° 0 mm 5 m/s 676 mmHg 50%
    19:00 +26°C° 0 mm 4 m/s 676 mmHg 54%
    20:00 +25°C° 0 mm 4 m/s 676 mmHg 58%
    21:00 +24°C° 0 mm 3 m/s 676 mmHg 63%
    22:00 +24°C° 0 mm 3 m/s 676 mmHg 64%
    23:00 +22°C° 0 mm 3 m/s 676 mmHg 65%

    Mâine, 21 August, Luni

    Timp Temperatura Precipitaţii Vânt Presiune Umiditate
    00:00 +23°C° 0 mm 2 m/s 676 mmHg 66%
    01:00 +21°C° 0 mm 2 m/s 675 mmHg 67%
    02:00 +21°C° 0 mm 2 m/s 675 mmHg 68%
    03:00 +21°C° 0 mm 2 m/s 675 mmHg 68%
    04:00 +20°C° 0 mm 2 m/s 675 mmHg 68%
    05:00 +20°C° 0 mm 2 m/s 675 mmHg 68%
    06:00 +20°C° 0 mm 2 m/s 675 mmHg 67%
    07:00 +21°C° 0 mm 2 m/s 676 mmHg 59%
    08:00 +24°C° 0 mm 2 m/s 676 mmHg 52%
    09:00 +25°C° 0 mm 2 m/s 676 mmHg 44%
    10:00 +26°C° 0 mm 2 m/s 676 mmHg 40%
    11:00 +27°C° 0 mm 2 m/s 676 mmHg 36%
    12:00 +28°C° 0 mm 2 m/s 676 mmHg 33%
    13:00 +29°C° 0 mm 3 m/s 676 mmHg 31%
    14:00 +29°C° 0 mm 3 m/s 676 mmHg 30%
    15:00 +29°C° 0 mm 4 m/s 676 mmHg 29%
    16:00 +28°C° 0 mm 4 m/s 675 mmHg 31%
    17:00 +27°C° 0 mm 4 m/s 675 mmHg 33%
    18:00 +26°C° 0 mm 4 m/s 675 mmHg 35%
    19:00 +25°C° 0 mm 3 m/s 675 mmHg 37%
    20:00 +24°C° 0 mm 3 m/s 675 mmHg 40%
    21:00 +23°C° 0 mm 2 m/s 675 mmHg 42%
    22:00 +23°C° 0 mm 2 m/s 675 mmHg 43%
    23:00 +21°C° 0 mm 2 m/s 675 mmHg 44%

    Poimâine, 22 August, Marţi

    Timp Temperatura Precipitaţii Vânt Presiune Umiditate
    00:00 +22°C° 0 mm 1 m/s 675 mmHg 44%
    01:00 +22°C° 0 mm 1 m/s 674 mmHg 45%
    02:00 +21°C° 0 mm 1 m/s 674 mmHg 46%
    03:00 +21°C° 0 mm 1 m/s 674 mmHg 46%
    04:00 +21°C° 0 mm 1 m/s 674 mmHg 45%
    05:00 +19°C° 0 mm 0 m/s 674 mmHg 44%
    06:00 +19°C° 0 mm 0 m/s 674 mmHg 43%
    07:00 +23°C° 0 mm 1 m/s 675 mmHg 37%
    08:00 +24°C° 0 mm 1 m/s 676 mmHg 32%
    09:00 +26°C° 0 mm 1 m/s 676 mmHg 27%
    10:00 +27°C° 0 mm 1 m/s 676 mmHg 25%
    11:00 +28°C° 0 mm 2 m/s 676 mmHg 23%
    12:00 +30°C° 0 mm 2 m/s 676 mmHg 22%
    13:00 +30°C° 0 mm 2 m/s 676 mmHg 23%
    14:00 +30°C° 0 mm 3 m/s 676 mmHg 24%
    15:00 +30°C° 0 mm 3 m/s 675 mmHg 24%
    16:00 +30°C° 0 mm 3 m/s 675 mmHg 28%
    17:00 +29°C° 0 mm 3 m/s 675 mmHg 32%
    18:00 +28°C° 0 mm 3 m/s 675 mmHg 36%
    19:00 +27°C° 0 mm 2 m/s 675 mmHg 41%
    20:00 +26°C° 0 mm 2 m/s 675 mmHg 45%
    21:00 +25°C° 0 mm 2 m/s 675 mmHg 50%
    22:00 +24°C° 0 mm 1 m/s 674 mmHg 51%
    23:00 +24°C° 0 mm 1 m/s 674 mmHg 53%

    23 August, Miercuri

    Timp Temperatura Precipitaţii Vânt Presiune Umiditate
    00:00 +24°C° 0 mm 1 m/s 674 mmHg 54%
    01:00 +23°C° 0 mm 1 m/s 674 mmHg 55%
    02:00 +23°C° 0 mm 1 m/s 673 mmHg 56%
    03:00 +23°C° 0 mm 1 m/s 673 mmHg 57%
    04:00 +23°C° 0 mm 1 m/s 674 mmHg 55%
    05:00 +23°C° 0 mm 1 m/s 674 mmHg 54%
    06:00 +23°C° 0 mm 1 m/s 674 mmHg 53%
    07:00 +25°C° 0 mm 2 m/s 675 mmHg 48%
    08:00 +26°C° 0 mm 2 m/s 675 mmHg 44%
    09:00 +28°C° 0 mm 3 m/s 676 mmHg 39%
    10:00 +29°C° 0 mm 3 m/s 676 mmHg 36%
    11:00 +30°C° 0 mm 3 m/s 676 mmHg 33%
    12:00 +31°C° 0 mm 3 m/s 676 mmHg 30%
    13:00 +31°C° 0 mm 3 m/s 676 mmHg 30%
    14:00 +31°C° 0 mm 3 m/s 676 mmHg 30%
    15:00 +31°C° 0 mm 3 m/s 675 mmHg 29%
    16:00 +31°C° 0 mm 3 m/s 675 mmHg 32%
    17:00 +30°C° 0 mm 2 m/s 675 mmHg 35%
    18:00 +29°C° 0 mm 2 m/s 675 mmHg 38%
    19:00 +28°C° 0 mm 2 m/s 675 mmHg 41%
    20:00 +28°C° 0 mm 2 m/s 675 mmHg 44%
    21:00 +27°C° 0 mm 1 m/s 675 mmHg 48%
    22:00 +26°C° 0 mm 1 m/s 675 mmHg 49%
    23:00 +26°C° 0 mm 1 m/s 675 mmHg 49%

    24 August, Joi

    Timp Temperatura Precipitaţii Vânt Presiune Umiditate
    00:00 +26°C° 0 mm 1 m/s 674 mmHg 50%
    01:00 +26°C° 0 mm 1 m/s 674 mmHg 50%
    02:00 +25°C° 0 mm 1 m/s 674 mmHg 50%
    03:00 +25°C° 0 mm 1 m/s 674 mmHg 50%
    04:00 +25°C° 0 mm 2 m/s 674 mmHg 50%
    05:00 +25°C° 0 mm 2 m/s 675 mmHg 50%
    06:00 +25°C° 0 mm 2 m/s 675 mmHg 50%
    07:00 +26°C° 0 mm 3 m/s 675 mmHg 46%
    08:00 +27°C° 0 mm 3 m/s 676 mmHg 42%
    09:00 +29°C° 0 mm 4 m/s 676 mmHg 39%
    10:00 +30°C° 0 mm 4 m/s 676 mmHg 35%
    11:00 +32°C° 0 mm 4 m/s 676 mmHg 32%
    12:00 +33°C° 0 mm 4 m/s 676 mmHg 29%
    13:00 +33°C° 0 mm 4 m/s 676 mmHg 28%
    14:00 +33°C° 0 mm 4 m/s 676 mmHg 27%
    15:00 +34°C° 0 mm 4 m/s 676 mmHg 26%
    16:00 +33°C° 0 mm 3 m/s 675 mmHg 28%
    17:00 +31°C° 0 mm 3 m/s 675 mmHg 29%
    18:00 +31°C° 0 mm 3 m/s 675 mmHg 31%
    19:00 +30°C° 0 mm 2 m/s 675 mmHg 32%
    20:00 +29°C° 0 mm 2 m/s 675 mmHg 34%
    21:00 +29°C° 0 mm 1 m/s 675 mmHg 36%
    22:00 +28°C° 0 mm 2 m/s 675 mmHg 37%
    23:00 +28°C° 0 mm 2 m/s 675 mmHg 37%

    25 August, Vineri

    Timp Temperatura Precipitaţii Vânt Presiune Umiditate
    00:00 +27°C° 0 mm 2 m/s 675 mmHg 38%
    01:00 +27°C° 0 mm 2 m/s 674 mmHg 39%
    02:00 +26°C° 0 mm 3 m/s 674 mmHg 39%
    03:00 +26°C° 0 mm 3 m/s 674 mmHg 40%
    04:00 +26°C° 0 mm 3 m/s 674 mmHg 41%
    05:00 +25°C° 0 mm 3 m/s 674 mmHg 43%
    06:00 +25°C° 0 mm 3 m/s 674 mmHg 44%
    07:00 +26°C° 0 mm 3 m/s 675 mmHg 41%
    08:00 +28°C° 0 mm 3 m/s 675 mmHg 38%
    09:00 +29°C° 0 mm 4 m/s 676 mmHg 35%
    10:00 +30°C° 0 mm 4 m/s 676 mmHg 32%
    11:00 +31°C° 0 mm 3 m/s 676 mmHg 30%
    12:00 +33°C° 0 mm 3 m/s 676 mmHg 28%
    13:00 +33°C° 0 mm 3 m/s 675 mmHg 27%
    14:00 +34°C° 0 mm 3 m/s 675 mmHg 27%
    15:00 +34°C° 0 mm 3 m/s 675 mmHg 26%
    16:00 +33°C° 0 mm 3 m/s 675 mmHg 28%
    17:00 +33°C° 0 mm 3 m/s 674 mmHg 29%
    18:00 +31°C° 0 mm 3 m/s 674 mmHg 30%
    19:00 +30°C° 0 mm 2 m/s 674 mmHg 32%
    20:00 +30°C° 0 mm 2 m/s 674 mmHg 33%
    21:00 +29°C° 0 mm 1 m/s 675 mmHg 35%
    22:00 +29°C° 0 mm 2 m/s 674 mmHg 35%
    23:00 +28°C° 0 mm 2 m/s 674 mmHg 36%
    Arată mai mult